Home   Weather   Saint-Petersburg   Past weeks
Flag for Russia

Past Weather in Saint-Petersburg, Russia — August 2019

Now
41 °F

Drizzle. Low clouds.


Feels Like: 39 °F
Forecast: 48 / 41 °F
Wind: 3 mph from East

Location: St. Petersburg

Current Time: Oct 18, 2019 at 12:25:20 am

Latest Report: Oct 17, 2019 at 11:30 pm


Visibility: 3 mi

Pressure: 29.86 "Hg

Humidity: 87%

Dew Point: 37 °F

Location of Saint-PetersburgLocation

August 2019 Weather in Saint-Petersburg — Graph

°F

High & Low Weather Summary for August 2019

 TemperatureHumidityPressure
High77 °F (Aug 29, 3:00 pm)100% (Aug 6, 2:00 am)30.39 "Hg (Aug 6, 2:00 am)
Low43 °F (Aug 6, 5:00 am)34% (Aug 29, 5:00 pm)29.56 "Hg (Aug 9, 1:30 am)
Average61 °F73%29.96 "Hg
* Reported Aug 1 12:00 am — Aug 31 11:30 pm, Saint-Petersburg. Weather by CustomWeather, © 2019

Note: Actual official high and low records may vary slightly from our data, if they occured in-between our weather recording intervals... More about our weather records

Advertising

Saint-Petersburg Weather History for August 1, 2019

Scroll right to see more
 ConditionsComfort  
Time TempWeatherWind HumidityBarometerVisibility
12:00 am
Thu, Aug 1
54 °FOvercast.10 mph77%29.89 "HgN/A
12:30 am54 °FOvercast.8 mph82%29.92 "HgN/A
1:00 am54 °FOvercast.10 mph82%29.89 "HgN/A
1:30 am54 °FOvercast.10 mph77%29.89 "HgN/A
2:00 am54 °FOvercast.8 mph77%29.89 "HgN/A
2:30 am54 °FOvercast.10 mph82%29.89 "HgN/A
3:00 am54 °FOvercast.10 mph77%29.89 "HgN/A
3:30 am54 °FOvercast.10 mph82%29.89 "HgN/A
4:00 am54 °FOvercast.10 mph77%29.92 "HgN/A
4:30 am54 °FOvercast.10 mph82%29.92 "HgN/A
5:00 am54 °FOvercast.8 mph82%29.92 "HgN/A
5:30 am54 °FOvercast.10 mph82%29.92 "HgN/A
6:00 am54 °FOvercast.8 mph82%29.92 "HgN/A
6:30 am54 °FOvercast.10 mph82%29.92 "HgN/A
7:00 am54 °FOvercast.8 mph82%29.92 "HgN/A
7:30 am55 °FOvercast.8 mph77%29.92 "HgN/A
8:00 am55 °FOvercast.8 mph77%29.92 "HgN/A
8:30 am55 °FPartly sunny.8 mph77%29.89 "HgN/A
9:00 am55 °FPartly sunny.8 mph77%29.92 "HgN/A
9:30 am55 °FPartly sunny.8 mph77%29.92 "HgN/A
10:00 am57 °FPartly sunny.8 mph72%29.89 "HgN/A
10:30 am57 °FPartly sunny.8 mph72%29.89 "HgN/A
11:00 am57 °FPartly sunny.8 mph72%29.89 "HgN/A
11:30 am57 °FPartly sunny.8 mph77%29.89 "HgN/A
12:00 pm57 °FPartly sunny.8 mph77%29.89 "HgN/A
12:30 pm57 °FPartly sunny.8 mph77%29.89 "HgN/A
1:00 pm59 °FPartly sunny.8 mph72%29.89 "HgN/A
1:30 pm59 °FPartly sunny.10 mph72%29.89 "HgN/A
2:00 pm59 °FPartly sunny.8 mph72%29.89 "HgN/A
2:30 pm59 °FOvercast.8 mph68%29.89 "HgN/A
3:00 pm59 °FOvercast.8 mph68%29.89 "HgN/A
3:30 pm59 °FOvercast.8 mph72%29.89 "HgN/A
4:00 pm61 °FOvercast.8 mph68%29.89 "HgN/A
5:00 pm61 °FOvercast.13 mph68%29.89 "HgN/A
5:30 pm61 °FMore clouds than sun.10 mph59%29.89 "HgN/A
6:00 pm59 °FMore clouds than sun.8 mph63%29.89 "HgN/A
6:30 pm59 °FOvercast.6 mph63%29.89 "HgN/A
7:00 pm57 °FOvercast.10 mph67%29.89 "HgN/A
7:30 pm57 °FOvercast.3 mph72%29.86 "HgN/A
8:00 pm57 °FOvercast.6 mph72%29.86 "HgN/A
8:30 pm55 °FOvercast.3 mph77%29.86 "HgN/A
9:00 pm55 °FOvercast.8 mph82%29.86 "HgN/A
9:30 pm54 °FOvercast.3 mph88%29.86 "HgN/A
10:00 pm54 °FOvercast.1 mph88%29.86 "Hg6 mi
10:30 pm54 °FOvercast.No wind82%29.86 "Hg6 mi
11:00 pm54 °FOvercast.1 mph88%29.86 "HgN/A
11:30 pm54 °FOvercast.No wind88%29.86 "HgN/A
Weather by CustomWeather, © 2019

See weather overview